Location: Albany
(35.0170°S, 117.8920°E)
Time: 16:42:44
(UTC+08:00)

Explorer 11/Cluster Stage 4 - Pass Details

Date: 27 January 2021
Orbit: 467 x 1257 km, 28.8° (Epoch: 02 March)

Event Time Altitude Azimuth Distance (km) Brightness Sun altitude
Rises 06:21:36 0° 316° (NW) 4,030 9.7 10.6°
Reaches altitude 10° 06:25:09 10° 327° (NNW) 2,965 9.1 11.3°
Maximum altitude 06:30:50 25° 19° (NNE) 1,887 8.7 12.4°
Drops below altitude 10° 06:35:45 10° 71° (ENE) 2,529 10.4 13.4°
Sets 06:38:31 0° 85° (E) 3,328 11.3 13.9°
